STARLINK-34037, 63847

Orbit data source: Space-Track

STARLINK-34037, 63847 is a payload satellite owned by SpaceX/Seattle (US) in LEO that was launched on Wed, 07 May 2025 UTC via an FALCON 9 launch vehicle from the Air Force Eastern Test Range (AFETR). Payload-class satellites include a variety of spacecraft equipped with specific instruments for various scientific and technological missions. These include communications satellites like Starlink; space stations such as the ISS; scientific satellites like the Hubble; Earth observation satellites from companies like Planet Labs, Umbra, and HawkEye 360; GPS; miniature CubeSats for education and research; and military/defense satellites.

Loading next visibility...
Identifier
63847, 2025-093M
Orbit
LEO
Country
Flag of USUS
Related business
Manufacturer
SpaceX/Seattle
Mission
Operational Commercial Communications
Bus & Motor
STARLINK V2MO, Unknown motor
Mass
575 kg wet, ~530 kg dry
Launch date (UTC)
2025-05-07 (7 months ago)
Launch vehicle
FALCON 9
Launch site
Air Force Eastern Test Range (AFETR)
Object type
Payload
Rocket body
Debris
Shape & HBR
Box + 2 Pan, 17.7 m
Radar Cross Section
36.964 m², Large (>1 m²)

Expand to show TLE details & history
Last TLE update: 1 day ago

TLE from 1 day ago
0 STARLINK-34037
1 63847U 25093M   25348.29617868  .00022211  00000-0  81380-3 0  9997
2 63847  42.9989 200.0485 0001044 278.7379  81.3355 15.27596506 34910
Epoch: 2025-12-14T07:06Z
TLE epoch observation values (Epoch: 2025-12-14T07:06:29.837Z)
Latitude
0.00001°
Longitude
10.21305°
Altitude
482.667 km
Speed
7.626 km/s
True Right ascension
13h 20m 11s
True Declination
0° 00' 00"
Sunlit
Object was in daylight at epoch
Visualization orbit readout
Latitude
Unknown
Longitude
Unknown
Altitude
Unknown
Speed
Unknown
Apparent Right ascension
Unknown
Apparent Declination
Unknown
Sunlit
N/A
Visualization observer readout
Local Sidereal Time
13:22:47
Azimuth
Unknown
Elevation
Unknown
Doppler factor
Unknown
Orbital elements
Apogee altitude
485.662 km
Perigee altitude
484.229 km
Semi-major axis
6,863.082 km
Eccentricity
0.0001
Inclination
42.9989°
RAAN
200.0485°
Arg. of periapsis
278.7379°
True anomaly
81.34733°
Mean anomaly
81.3355°
Eccentric anomaly
81.34141°
Mean motion
3.81737 °/min
Orbital period
94.31 mins
BSTAR
0.0008138
Loading maneuver chart data...
Computing Atmospheric mass density...
Loading historical data...
Loading historical data...
Loading historical data...
Loading historical data...
Loading historical data...
Loading historical data...
Loading historical data...

Documentation

Showing up to 5 results
|